Wind_Speed
13 24 33 28 27 30 30 33 33 36 37 39 47 38 29 42 43 44 43 44 40 39 38 36 33 36 37 35 36 37 35 32
22 33 30 25 25 26 30 33 36 36 37 42 44 43 36 37 46 44 46 48 50 44 44 43 39 41 41 40 39 39 40 38
27 29 30 32 32 33 33 35 37 40 42 39 43 48 46 40 38 44 42 47 53 52 51 50 48 46 46 49 46 45 44 43
27 32 37 41 40 40 37 37 42 42 46 48 46 45 50 49 45 42 47 47 49 55 53 55 50 52 50 55 50 50 48 46
26 27 30 35 36 36 36 36 36 43 47 51 53 53 50 54 56 48 44 49 50 51 51 52 51 53 51 51 50 54 51 51
23 24 27 29 31 34 37 38 40 38 40 47 54 58 58 56 55 57 56 49 53 54 53 51 54 52 50 51 52 49 52 50
24 25 27 28 29 30 35 39 42 43 44 43 44 55 62 64 60 57 55 55 45 58 54 53 52 53 52 50 49 48 51 50
32 29 28 30 32 35 36 36 39 40 41 40 40 42 53 63 65 63 61 58 56 58 59 56 55 53 52 47 48 48 52 50
34 33 33 33 35 38 39 40 41 41 39 38 37 39 38 44 56 61 63 62 62 64 52 51 55 55 51 47 49 49 48 56
38 35 33 34 37 38 39 39 41 44 44 39 38 38 37 38 43 41 55 58 62 65 63 59 51 52 52 50 49 53 47 52
38 33 31 33 37 38 38 35 37 43 43 40 37 37 31 36 34 34 41 50 60 62 56 52 49 48 44 43 48 46 48 43
39 36 37 35 36 37 38 35 35 41 38 37 35 31 30 35 31 28 37 44 37 40 47 48 39 35 30 34 30 23 25 25
35 36 37 35 32 34 36 34 34 40 36 34 32 29 24 30 29 27 32 45 36 40 45 41 36 29 23 26 33 30 27 24
34 36 37 35 33 32 33 32 31 37 31 29 27 27 21 24 24 23 33 32 36 43 40 39 37 31 29 28 31 27 25 30
33 32 31 30 30 30 31 29 30 34 29 25 23 18 18 23 21 24 29 29 19 32 32 36 35 29 31 33 31 28 28 29
27 26 26 26 26 26 26 26 27 30 30 24 22 16 11 11 13 17 21 19 10 13 24 25 24 30 31 29 30 29 28 27
23 24 24 24 24 24 25 24 23 26 27 26 21 18 16 13 10 6 1 17 14 10 18 21 22 25 23 24 24 24 26 27
25 25 24 24 24 25 24 24 23 23 23 21 23 22 11 10 9 8 6 5 3 6 10 11 18 21 21 23 24 26 27 29
25 26 26 26 25 24 25 25 23 22 20 20 19 16 21 20 15 14 11 9 6 6 7 13 20 21 20 21 21 22 24 26
Wind_Direction
291 267 269 280 279 273 265 260 257 253 253 251 252 264 246 240 244 245 244 248 242 248 252 255 258 260 264 268 270 268 266 265
264 272 287 296 290 284 271 267 264 259 255 255 251 249 254 249 246 246 249 248 250 244 249 254 255 258 263 266 269 268 266 263
282 295 297 296 293 290 280 271 261 260 260 255 256 254 249 242 251 246 248 251 252 251 246 250 254 259 260 265 264 265 265 263
297 300 301 300 296 291 284 273 268 258 254 255 252 253 255 251 249 250 250 249 251 256 253 251 253 253 256 263 264 265 263 263
305 302 300 299 298 298 294 287 277 265 258 254 253 251 248 253 249 241 254 257 254 253 257 257 256 259 263 262 261 265 261 259
318 316 314 312 310 305 299 296 292 284 275 262 252 251 253 247 250 249 244 249 250 254 254 258 259 259 262 265 263 260 258 260
329 324 320 324 321 315 307 303 296 293 289 282 268 256 250 250 247 250 250 247 252 254 252 255 259 261 261 261 261 261 257 254
328 325 318 315 318 321 318 313 308 301 297 298 288 275 260 252 249 246 247 248 248 256 256 256 259 263 262 261 256 254 255 251
329 327 324 321 318 316 319 317 315 307 304 298 295 290 271 263 253 247 246 247 249 250 253 255 258 258 255 252 249 249 250 244
324 318 318 317 318 317 317 318 322 318 313 308 296 295 271 263 258 259 248 245 246 250 253 256 256 256 256 258 249 249 247 263
326 315 311 314 319 317 316 316 322 321 314 311 305 300 263 259 264 253 254 247 241 247 246 249 250 253 247 252 243 250 258 262
317 316 312 317 318 316 312 312 317 324 317 311 307 298 271 261 258 253 255 233 232 236 241 247 246 240 243 249 261 275 270 250
312 313 313 315 316 313 310 312 314 324 321 313 308 302 275 252 254 269 258 220 211 217 216 230 223 210 233 258 267 261 255 248
313 311 314 316 315 314 312 316 312 322 321 318 315 303 273 260 245 273 242 229 220 226 229 210 221 228 235 238 238 249 254 253
312 313 319 321 320 322 317 317 308 321 328 325 323 310 288 265 249 249 246 235 209 215 213 217 219 220 224 236 245 251 257 256
326 328 331 331 330 328 323 322 317 313 335 335 327 332 320 268 270 257 251 217 195 192 198 208 221 220 229 236 243 248 247 247
338 338 340 338 337 338 340 332 329 326 321 336 345 334 351 356 0 344 38 248 223 204 201 219 220 232 231 232 238 246 249 251
335 337 339 339 340 339 340 344 342 337 336 338 340 351 337 353 355 340 352 339 330 237 224 213 236 240 237 236 241 246 253 255
328 332 334 335 334 335 335 338 345 346 344 342 343 342 341 339 336 329 322 321 325 262 258 253 258 260 253 250 247 253 258 259
Height
3097 3089 3086 3091 3091 3090 3091 3091 3094 3093 3090 3088 3083 3081 3063 3086 3095 3099 3103 3104 3110 3111 3111 3114 3116 3116 3116 3119 3120 3122 3123 3125
3089 3082 3086 3088 3084 3085 3085 3086 3085 3084 3083 3082 3079 3076 3078 3083 3086 3091 3093 3095 3096 3103 3103 3105 3107 3107 3108 3108 3113 3114 3115 3118
3086 3083 3081 3080 3079 3079 3078 3077 3076 3075 3075 3076 3075 3076 3074 3074 3077 3080 3084 3085 3084 3089 3095 3095 3098 3099 3099 3099 3102 3105 3106 3107
3084 3080 3075 3074 3069 3068 3068 3068 3066 3065 3064 3064 3065 3066 3067 3068 3070 3070 3072 3076 3077 3075 3082 3085 3087 3087 3089 3091 3091 3094 3097 3098
3080 3076 3072 3069 3063 3061 3058 3056 3055 3053 3053 3052 3051 3053 3053 3055 3057 3058 3063 3064 3066 3068 3069 3074 3076 3077 3077 3080 3083 3084 3086 3088
3075 3071 3067 3064 3058 3054 3051 3047 3045 3044 3041 3039 3039 3039 3041 3041 3044 3046 3047 3050 3053 3055 3057 3060 3064 3066 3070 3070 3071 3071 3073 3077
3070 3066 3064 3060 3054 3051 3046 3039 3036 3032 3029 3028 3026 3025 3026 3027 3030 3033 3037 3038 3040 3041 3049 3049 3051 3054 3057 3060 3061 3062 3064 3066
3066 3063 3060 3056 3050 3044 3040 3036 3030 3024 3019 3015 3013 3012 3011 3011 3014 3017 3021 3026 3027 3028 3033 3037 3039 3043 3046 3049 3051 3050 3051 3055
3061 3056 3052 3048 3044 3039 3033 3027 3022 3017 3011 3006 3002 2999 2998 2998 2999 3002 3006 3011 3014 3017 3022 3025 3028 3030 3033 3036 3037 3040 3040 3042
3056 3051 3046 3041 3037 3031 3026 3019 3013 3006 3002 2996 2991 2988 2987 2987 2987 2990 2990 2995 3000 3004 3009 3013 3016 3017 3021 3023 3025 3028 3026 3031
3052 3047 3042 3037 3031 3026 3020 3013 3006 2998 2991 2985 2981 2978 2977 2978 2976 2979 2980 2981 2988 2989 2995 3000 3005 3009 3009 3011 3011 3022 3026 3022
3046 3042 3037 3032 3025 3019 3014 3006 3000 2994 2985 2978 2974 2970 2967 2967 2968 2969 2971 2974 2979 2982 2984 2988 2994 2998 3000 3003 3005 3006 3013 3012
3041 3036 3030 3025 3020 3014 3008 3001 2995 2988 2980 2973 2968 2963 2959 2958 2959 2961 2963 2960 2964 2971 2972 2979 2983 2990 2994 2996 2999 3001 3002 3007
3035 3029 3024 3019 3014 3008 3003 2995 2991 2984 2976 2969 2962 2957 2954 2953 2951 2952 2954 2956 2949 2953 2964 2969 2973 2980 2983 2988 2990 2996 2999 3004
3029 3024 3019 3014 3009 3003 2998 2992 2987 2980 2972 2966 2959 2953 2949 2947 2945 2946 2947 2947 2937 2948 2948 2959 2965 2970 2975 2982 2987 2989 2991 2994
3025 3020 3016 3011 3006 3001 2995 2989 2983 2977 2970 2964 2958 2952 2947 2944 2941 2941 2942 2942 2938 2939 2946 2953 2957 2962 2969 2975 2980 2982 2985 2987
3023 3019 3014 3009 3004 2999 2993 2988 2981 2974 2969 2963 2957 2953 2947 2944 2940 2941 2941 2941 2942 2939 2944 2951 2953 2958 2964 2967 2971 2974 2977 2978
3022 3017 3013 3008 3002 2997 2992 2986 2980 2974 2967 2962 2956 2952 2949 2945 2944 2943 2941 2941 2942 2944 2945 2946 2951 2953 2956 2959 2964 2966 2968 2970
3020 3015 3011 3006 3001 2996 2991 2985 2979 2974 2968 2963 2957 2952 2948 2944 2942 2942 2943 2943 2943 2943 2945 2945 2948 2947 2950 2953 2955 2957 2959 2961